User: anonymous   Login
Location: Bismarck
(46.7731°N, 100.8200°W)
Time: 02:45:36
(UTC-05:00)
Language:

Cosmos 2219 Rocket - Orbit

View from above orbital plane
View from above orbital plane
View from above satellite
View from above satellite

Ground track
Ground track

The orbit data is extracted from the following two-line orbital elements,

1 22220U 92076B   16150.57806479 -.00000223  00000-0 -88096-4 0  9995
2 22220  70.9979 146.7122 0011478 146.1600 346.5483 14.16396449216451
Epoch (UTC): 29 May 2016 13:52:24
Eccentricity: 0.0011478
inclination: 70.9979°
perigee height: 829 km
apogee height: 846 km
right ascension of ascending node: 146.7122°
argument of perigee: 146.1600°
revolutions per day: 14.16396449
mean anomaly at epoch: 346.5483°
orbit number at epoch: 21645

The dashed part of the orbit path shows where the satellite is in the earth's shadow,  

DLR